Location: St Paul
(33.4390°N, 83.7350°W)
Time: 22:15:05
(UTC-05:00)

H-2A R/B - Pass Details

Date: 06 October 2017
Orbit: 505 x 544 km, 97.3° (Epoch: 18 November)

Event Time Altitude Azimuth Distance (km) Brightness Sun altitude
Exits shadow 21:06:05 14° 197° (SSW) 1,506 5.1 -24.5°
Maximum altitude 21:08:57 37° 262° (W) 822 4.1 -25.1°
Drops below altitude 10° 21:12:31 10° 331° (NNW) 1,772 5.9 -25.8°
Sets 21:14:46 0° 339° (NNW) 2,673 6.7 -26.3°
